カタログに戻る

CZ-2C R/B

運用中SSO
NORAD 40262·ROCKET BODY·🇨🇳 China

打ち上げ Sep 28, 2014 から Jiuquan Satellite Launch Center

Loading…

次のパス (今後24時間)

TLE

最新Source: Space-Track

元期: Sep 14, 2026, 21:04 UTC

1 40262U 14059B   26257.87818986  .00000472  00000-0  75035-4 0  9997
2 40262  98.3456 122.4666 0040025 258.8357 100.8350 14.76560164642859

AllMySatでCZ-2C R/Bをリアルタイム追跡

Download on the App Store